Location: Boiro
(42.6475°N, 8.8834°W)
Time: 01:14:35
(UTC+01:00)

Vanguard 2 Rocket - Pass Details

Date: 16 December 2021
Orbit: 553 x 3325 km, 32.9° (Epoch: 26 January)

Event Time Altitude Azimuth Distance (km) Brightness Sun altitude
Rises 20:00:15 0° 256° (WSW) 2,903 11.1 -20.7°
Reaches altitude 10° 20:02:51 10° 237° (WSW) 2,180 9.9 -21.1°
Maximum altitude 20:06:21 19° 191° (S) 1,935 8.8 -21.8°
Drops below altitude 10° 20:11:00 10° 149° (SSE) 3,003 9.3 -22.6°
Enters shadow 20:12:55 - 141° (SE) 3,625 9.7 -23.0°
